This is the latest recevied weather packets stored in our database for station/object KG5EO. If no packets are shown the sender has not sent any weather packets the latest 10 day(s).
| Time | Temp. | Humidity | Pressure | Rain* | Wind** | Luminosity | Snow |
|---|---|---|---|---|---|---|---|
| 1777238754 | 25° C | 27% | 40.9 hPa | 0 mm | - | - | - |
| 1777238454 | 25° C | 28% | 40.9 hPa | 0 mm | - | - | - |
| 1777238156 | 24.44° C | 31% | 40.9 hPa | 0 mm | - | - | - |
| 1777237855 | 24.44° C | 30% | 40.9 hPa | 0 mm | - | - | - |
| 1777237554 | 24.44° C | 28% | 40.9 hPa | 0 mm | - | - | - |
| 1777237253 | 25° C | 27% | 40.9 hPa | 0 mm | - | - | - |
| 1777236954 | 24.44° C | 27% | 40.9 hPa | 0 mm | - | - | - |
| 1777236684 | 24.44° C | 28% | 40.9 hPa | 0 mm | - | - | - |
| 1777236354 | 24.44° C | 28% | 40.9 hPa | 0 mm | - | - | - |
| 1777236053 | 24.44° C | 30% | 40.9 hPa | 0 mm | - | - | - |
| 1777235755 | 24.44° C | 29% | 40.9 hPa | 0 mm | - | - | - |
| 1777235483 | 24.44° C | 29% | 40.9 hPa | 0 mm | - | - | - |
| 1777235152 | 24.44° C | 28% | 40.9 hPa | 0 mm | - | - | - |
| 1777234883 | 24.44° C | 30% | 40.9 hPa | 0 mm | - | - | - |
| 1777234552 | 24.44° C | 30% | 40.9 hPa | 0 mm | - | - | - |
| 1777234282 | 23.89° C | 31% | 40.9 hPa | 0 mm | - | - | - |
| 1777233952 | 23.33° C | 29% | 40.9 hPa | 0 mm | - | - | - |
| 1777233682 | 23.33° C | 30% | 41 hPa | 0 mm | - | - | - |
| 1777233382 | 23.89° C | 30% | 41 hPa | 0 mm | - | - | - |
| 1777233051 | 23.89° C | 28% | 41 hPa | 0 mm | - | - | - |
| 1777232781 | 23.89° C | 30% | 41 hPa | 0 mm | - | - | - |
| 1777232451 | 23.89° C | 30% | 41 hPa | 0 mm | - | - | - |
| 1777232152 | 23.89° C | 31% | 41 hPa | 0 mm | - | - | - |
| 1777231881 | 23.33° C | 30% | 41 hPa | 0 mm | - | - | - |
| 1777231612 | 23.33° C | 29% | 41 hPa | 0 mm | - | - | - |
* Rain latest hour (hover to see other rain measurements)
** Current wind speed in m/s (hover to see current wind gust speed)